Temp
-12 -11 -11 -11 -11 -12 -11 -11 -11 -11 -11 -12 -12 -12 -12 -13 -13 -13 -13 -12 -12 -12 -12 -12 -12 -12 -11 -11 -12 -12 -12 -12 -12 -12 -12 -12 -12 -12 -12 -11 -12 -12 -12 -13 -13 -13 -12
-12 -11 -12 -12 -12 -12 -12 -12 -12 -12 -12 -13 -13 -13 -13 -13 -13 -13 -13 -13 -13 -13 -12 -12 -12 -12 -11 -12 -12 -12 -12 -12 -12 -12 -12 -12 -12 -12 -12 -12 -12 -12 -12 -13 -13 -13 -12
-12 -12 -12 -12 -12 -12 -13 -13 -13 -14 -13 -14 -14 -13 -14 -14 -13 -13 -14 -14 -13 -13 -13 -12 -12 -12 -11 -13 -12 -12 -12 -12 -12 -12 -12 -12 -12 -12 -12 -12 -12 -12 -12 -13 -13 -13 -12
-14 -13 -14 -13 -14 -14 -14 -14 -14 -14 -14 -15 -15 -15 -15 -14 -14 -15 -14 -14 -13 -12 -13 -13 -12 -12 -11 -14 -12 -12 -12 -12 -12 -12 -12 -12 -12 -12 -12 -12 -12 -12 -12 -13 -14 -13 -12
-15 -14 -15 -15 -15 -15 -15 -15 -15 -15 -15 -16 -16 -16 -15 -15 -15 -15 -15 -15 -14 -14 -13 -13 -13 -12 -12 -13 -13 -12 -12 -12 -12 -12 -12 -12 -12 -12 -12 -12 -12 -13 -13 -13 -14 -13 -12
-16 -16 -16 -16 -16 -16 -16 -16 -16 -16 -16 -16 -16 -16 -16 -16 -17 -17 -17 -16 -16 -15 -14 -13 -12 -13 -13 -14 -14 -13 -12 -12 -12 -12 -12 -12 -12 -12 -12 -12 -13 -13 -14 -13 -13 -14 -13
-18 -18 -17 -17 -17 -17 -17 -17 -17 -16 -16 -16 -16 -17 -17 -16 -18 -19 -18 -18 -17 -16 -16 -15 -14 -14 -15 -15 -14 -14 -13 -13 -12 -12 -12 -13 -12 -12 -13 -13 -13 -13 -13 -12 -13 -14 -14
-19 -19 -19 -18 -18 -18 -18 -18 -19 -18 -18 -17 -18 -18 -18 -18 -18 -19 -18 -18 -19 -17 -16 -16 -16 -15 -16 -17 -15 -14 -13 -13 -13 -13 -13 -12 -11 -13 -13 -13 -13 -14 -13 -13 -13 -14 -14
-19 -19 -19 -19 -19 -19 -19 -19 -19 -19 -19 -19 -20 -19 -19 -19 -19 -19 -18 -19 -19 -18 -16 -16 -16 -15 -16 -16 -15 -15 -14 -14 -14 -13 -13 -12 -13 -14 -13 -13 -13 -14 -13 -13 -14 -14 -14
-19 -19 -19 -19 -19 -19 -19 -19 -20 -20 -20 -20 -20 -20 -21 -20 -20 -20 -20 -19 -19 -19 -17 -17 -17 -16 -16 -16 -14 -15 -15 -14 -14 -13 -14 -13 -13 -13 -13 -13 -14 -13 -14 -14 -14 -14 -14
-19 -20 -20 -20 -20 -20 -20 -19 -20 -20 -20 -20 -20 -21 -20 -20 -20 -20 -19 -19 -19 -18 -17 -16 -16 -15 -15 -15 -15 -15 -15 -14 -13 -14 -14 -12 -14 -14 -13 -14 -14 -14 -14 -15 -15 -14 -14
-20 -21 -21 -21 -21 -20 -20 -20 -20 -20 -20 -20 -20 -20 -19 -20 -20 -19 -19 -18 -18 -18 -18 -17 -16 -15 -15 -15 -15 -15 -15 -14 -14 -14 -14 -13 -13 -13 -13 -15 -14 -15 -14 -14 -14 -14 -13
-21 -20 -20 -21 -21 -21 -21 -21 -20 -20 -20 -20 -20 -19 -19 -19 -19 -19 -18 -18 -18 -18 -17 -17 -16 -16 -16 -15 -15 -15 -14 -14 -14 -14 -13 -13 -13 -14 -14 -14 -14 -14 -14 -14 -13 -13 -12
-22 -22 -22 -22 -22 -22 -22 -22 -21 -21 -20 -20 -20 -20 -19 -19 -19 -19 -19 -18 -18 -17 -17 -17 -16 -16 -16 -16 -15 -15 -15 -15 -14 -14 -14 -14 -14 -14 -14 -14 -14 -15 -15 -14 -14 -13 -14
-24 -24 -24 -24 -25 -24 -24 -23 -22 -22 -22 -21 -21 -20 -20 -19 -19 -19 -19 -18 -18 -17 -17 -17 -17 -17 -17 -16 -16 -16 -16 -15 -15 -15 -15 -14 -14 -14 -14 -15 -16 -15 -14 -14 -14 -14 -14
-26 -26 -26 -26 -26 -26 -25 -24 -24 -23 -22 -22 -22 -21 -20 -20 -20 -20 -20 -18 -18 -18 -17 -17 -17 -18 -18 -18 -17 -16 -17 -17 -16 -16 -16 -15 -14 -14 -14 -15 -15 -15 -16 -16 -14 -14 -14
-26 -26 -26 -27 -27 -27 -26 -25 -25 -24 -24 -23 -23 -22 -21 -21 -22 -21 -19 -18 -18 -18 -18 -18 -18 -20 -20 -20 -18 -17 -18 -19 -18 -17 -17 -16 -15 -15 -16 -15 -15 -15 -15 -15 -15 -14 -13
-26 -27 -27 -27 -27 -27 -26 -26 -25 -24 -24 -24 -23 -23 -22 -22 -23 -21 -19 -19 -19 -19 -20 -20 -21 -21 -21 -21 -20 -18 -19 -21 -19 -18 -18 -18 -17 -15 -15 -16 -16 -16 -16 -16 -15 -14 -14
-24 -25 -25 -26 -26 -26 -26 -26 -26 -25 -25 -25 -24 -23 -23 -23 -22 -21 -20 -20 -21 -21 -22 -22 -22 -22 -22 -21 -20 -20 -20 -21 -20 -20 -19 -19 -18 -17 -16 -16 -16 -16 -16 -16 -16 -16 -15
-24 -24 -24 -24 -25 -25 -25 -25 -25 -25 -25 -25 -25 -24 -24 -24 -23 -22 -22 -22 -22 -23 -23 -23 -22 -23 -22 -21 -21 -19 -19 -21 -21 -20 -21 -20 -19 -18 -17 -16 -16 -16 -16 -16 -16 -15 -15
-23 -23 -24 -24 -24 -24 -24 -24 -24 -25 -25 -25 -25 -25 -24 -24 -23 -24 -24 -24 -23 -23 -23 -23 -22 -23 -23 -21 -20 -20 -21 -21 -21 -20 -21 -20 -19 -19 -18 -17 -17 -17 -17 -17 -16 -15 -15
-23 -23 -23 -23 -23 -24 -24 -24 -24 -25 -25 -25 -24 -24 -24 -23 -24 -24 -24 -24 -23 -23 -23 -23 -22 -22 -23 -21 -20 -21 -21 -20 -22 -21 -20 -20 -19 -19 -18 -17 -17 -17 -17 -17 -16 -15 -15
-23 -23 -23 -23 -23 -23 -23 -24 -24 -25 -25 -25 -24 -24 -24 -24 -24 -24 -23 -23 -23 -23 -23 -22 -22 -22 -22 -22 -22 -21 -21 -21 -21 -21 -20 -20 -19 -18 -18 -18 -18 -17 -16 -16 -16 -15 -15
-23 -23 -23 -23 -23 -23 -23 -23 -24 -24 -25 -25 -24 -25 -25 -24 -24 -23 -23 -23 -23 -23 -23 -23 -23 -22 -22 -21 -20 -20 -20 -20 -20 -21 -21 -20 -19 -19 -19 -19 -18 -17 -17 -17 -17 -17 -16
-24 -25 -25 -25 -25 -24 -24 -23 -23 -24 -24 -24 -24 -24 -24 -24 -23 -23 -23 -23 -23 -23 -23 -23 -23 -22 -22 -21 -20 -20 -20 -20 -20 -20 -20 -20 -19 -20 -19 -19 -18 -17 -17 -18 -17 -16 -16
-25 -25 -25 -25 -25 -26 -25 -25 -24 -24 -24 -24 -23 -23 -23 -23 -22 -23 -23 -23 -23 -23 -23 -22 -22 -22 -21 -21 -20 -20 -19 -20 -20 -20 -20 -21 -21 -21 -20 -19 -19 -19 -18 -18 -18 -16 -17
-25 -25 -25 -25 -25 -25 -25 -26 -26 -25 -24 -24 -23 -23 -23 -23 -23 -23 -22 -22 -23 -22 -22 -23 -23 -22 -21 -21 -20 -20 -20 -20 -20 -20 -21 -21 -22 -21 -21 -20 -19 -19 -19 -18 -17 -18 -17
-25 -25 -26 -26 -26 -26 -25 -26 -26 -26 -26 -25 -25 -24 -23 -23 -22 -23 -23 -22 -22 -22 -22 -23 -23 -22 -21 -21 -20 -20 -20 -20 -20 -20 -20 -21 -21 -21 -20 -19 -19 -20 -19 -18 -18 -18 -18
-25 -26 -26 -26 -26 -26 -26 -26 -26 -26 -26 -26 -26 -25 -25 -24 -23 -23 -22 -22 -22 -22 -23 -23 -23 -22 -21 -21 -20 -20 -20 -20 -20 -20 -20 -21 -21 -21 -21 -20 -19 -19 -19 -19 -19 -18 -18
Height
5732 5730 5729 5727 5726 5725 5725 5725 5726 5726 5727 5728 5728 5728 5729 5729 5730 5731 5733 5736 5737 5737 5739 5740 5742 5745 5748 5752 5756 5754 5756 5757 5758 5759 5759 5759 5759 5759 5761 5760 5758 5759 5759 5757 5757 5753 5748
5717 5715 5715 5714 5711 5709 5709 5709 5711 5711 5711 5712 5714 5715 5715 5717 5719 5722 5721 5721 5725 5728 5729 5728 5733 5735 5739 5742 5745 5745 5747 5750 5751 5752 5752 5752 5752 5751 5755 5755 5753 5753 5754 5753 5751 5750 5746
5703 5702 5701 5700 5697 5695 5695 5695 5695 5696 5696 5698 5699 5701 5702 5704 5704 5707 5708 5708 5711 5715 5719 5720 5722 5726 5729 5735 5734 5737 5738 5739 5744 5745 5745 5745 5743 5746 5749 5750 5749 5749 5749 5748 5747 5744 5740
5688 5686 5685 5684 5682 5681 5681 5680 5680 5680 5682 5683 5685 5686 5687 5689 5690 5692 5694 5696 5697 5701 5705 5710 5710 5714 5719 5723 5724 5728 5728 5733 5735 5737 5737 5737 5736 5739 5742 5744 5744 5744 5744 5744 5740 5739 5736
5675 5673 5671 5668 5668 5667 5667 5667 5667 5667 5667 5667 5670 5673 5673 5675 5677 5677 5681 5683 5684 5688 5692 5696 5699 5704 5711 5713 5715 5718 5722 5725 5726 5729 5729 5727 5731 5734 5736 5740 5740 5740 5739 5738 5736 5734 5733
5659 5658 5655 5654 5653 5652 5653 5653 5653 5653 5654 5655 5657 5657 5661 5663 5664 5663 5667 5670 5672 5676 5679 5683 5687 5694 5699 5702 5705 5708 5712 5715 5718 5718 5719 5721 5725 5726 5731 5734 5735 5732 5731 5731 5733 5731 5728
5642 5640 5640 5639 5640 5639 5639 5639 5638 5640 5641 5642 5644 5645 5646 5650 5651 5652 5658 5660 5664 5665 5669 5674 5678 5683 5686 5691 5695 5698 5700 5703 5707 5709 5712 5715 5714 5719 5728 5727 5727 5726 5726 5728 5730 5727 5721
5627 5626 5626 5625 5626 5627 5627 5626 5626 5627 5628 5629 5631 5632 5633 5637 5640 5641 5644 5649 5653 5656 5660 5663 5666 5672 5676 5677 5684 5688 5691 5695 5698 5702 5704 5705 5706 5720 5717 5719 5719 5719 5721 5724 5725 5724 5716
5612 5612 5611 5611 5611 5612 5613 5614 5615 5616 5618 5619 5620 5621 5622 5626 5631 5633 5636 5639 5644 5646 5648 5660 5658 5661 5668 5667 5675 5681 5680 5684 5689 5692 5695 5698 5705 5705 5708 5711 5712 5715 5718 5721 5718 5715 5713
5596 5595 5595 5596 5597 5598 5599 5601 5603 5605 5607 5609 5611 5612 5615 5619 5623 5625 5628 5632 5635 5638 5638 5648 5649 5650 5655 5660 5660 5671 5670 5674 5680 5684 5687 5688 5693 5698 5700 5702 5709 5706 5716 5712 5710 5708 5708
5576 5575 5575 5576 5578 5581 5583 5587 5589 5593 5596 5598 5601 5603 5606 5611 5614 5616 5621 5625 5627 5632 5632 5637 5640 5642 5643 5651 5654 5658 5665 5666 5671 5677 5680 5683 5688 5690 5692 5699 5699 5704 5704 5702 5703 5700 5701
5555 5553 5553 5555 5558 5562 5565 5569 5574 5579 5582 5587 5589 5592 5596 5600 5602 5604 5612 5614 5619 5625 5624 5627 5627 5633 5635 5639 5644 5647 5655 5659 5661 5666 5672 5673 5676 5680 5682 5689 5689 5693 5696 5696 5697 5695 5691
5533 5530 5529 5530 5534 5539 5545 5551 5557 5562 5567 5572 5575 5579 5583 5588 5589 5595 5599 5603 5609 5613 5620 5619 5616 5620 5626 5630 5634 5639 5645 5651 5654 5656 5662 5665 5668 5672 5676 5678 5680 5685 5689 5691 5689 5687 5690
5508 5504 5503 5504 5508 5515 5524 5531 5539 5545 5550 5556 5559 5564 5570 5575 5578 5583 5586 5591 5597 5605 5607 5607 5608 5610 5615 5619 5625 5630 5634 5639 5643 5646 5649 5652 5657 5663 5668 5671 5675 5679 5682 5683 5683 5685 5688
5489 5485 5483 5484 5487 5494 5503 5512 5520 5527 5534 5539 5542 5549 5556 5562 5565 5569 5572 5578 5590 5594 5594 5597 5600 5601 5603 5608 5615 5618 5623 5627 5630 5632 5636 5641 5647 5653 5657 5660 5666 5669 5669 5678 5678 5677 5678
5476 5473 5470 5470 5473 5478 5485 5493 5502 5511 5518 5523 5528 5533 5543 5547 5549 5553 5558 5571 5576 5579 5581 5585 5589 5591 5593 5596 5600 5606 5610 5612 5616 5621 5625 5631 5634 5640 5645 5649 5656 5657 5664 5667 5665 5667 5669
5464 5462 5460 5461 5463 5466 5472 5478 5486 5494 5502 5507 5512 5517 5531 5532 5532 5535 5551 5559 5563 5566 5568 5571 5575 5578 5582 5585 5588 5594 5597 5599 5604 5611 5615 5619 5623 5629 5633 5641 5647 5650 5651 5654 5657 5660 5661
5453 5451 5450 5450 5452 5455 5459 5464 5471 5479 5486 5490 5497 5503 5516 5517 5518 5525 5540 5545 5550 5553 5554 5558 5563 5567 5571 5575 5578 5583 5585 5589 5593 5600 5606 5609 5614 5620 5626 5631 5635 5640 5645 5650 5651 5655 5656
5446 5444 5442 5441 5440 5443 5447 5452 5458 5465 5471 5479 5481 5492 5498 5502 5503 5515 5523 5530 5534 5540 5545 5549 5553 5557 5560 5564 5569 5573 5576 5580 5585 5590 5595 5599 5604 5610 5617 5622 5625 5629 5634 5638 5643 5647 5648
5438 5437 5436 5436 5436 5435 5436 5440 5446 5453 5459 5465 5471 5477 5484 5486 5496 5502 5508 5517 5524 5532 5537 5542 5546 5551 5553 5558 5562 5566 5569 5574 5578 5582 5586 5591 5596 5601 5610 5618 5618 5621 5626 5630 5634 5638 5641
5430 5430 5430 5431 5432 5433 5433 5434 5437 5443 5448 5452 5459 5465 5475 5477 5487 5495 5501 5510 5515 5524 5531 5535 5540 5544 5549 5551 5555 5558 5562 5564 5569 5574 5580 5585 5588 5593 5600 5608 5608 5613 5619 5624 5628 5634 5635
5421 5421 5422 5423 5425 5428 5430 5432 5434 5438 5441 5444 5453 5459 5466 5472 5478 5486 5494 5501 5511 5519 5525 5530 5534 5538 5540 5543 5548 5551 5552 5554 5559 5567 5574 5579 5583 5585 5590 5597 5603 5604 5608 5614 5619 5623 5625
5408 5409 5410 5413 5415 5418 5423 5427 5430 5434 5437 5440 5445 5453 5459 5467 5475 5480 5488 5499 5507 5511 5518 5523 5529 5531 5535 5537 5538 5542 5545 5545 5550 5556 5564 5568 5574 5574 5580 5588 5594 5598 5607 5609 5611 5614 5617
5392 5392 5394 5397 5401 5405 5410 5416 5422 5427 5431 5436 5441 5450 5453 5460 5468 5476 5484 5493 5499 5505 5511 5516 5522 5527 5530 5529 5533 5537 5538 5540 5548 5555 5560 5563 5570 5569 5574 5580 5587 5594 5600 5602 5602 5606 5609
5376 5375 5376 5378 5382 5387 5393 5400 5407 5415 5421 5426 5434 5441 5445 5451 5462 5470 5477 5484 5491 5497 5503 5510 5517 5520 5522 5524 5528 5532 5535 5537 5544 5549 5551 5555 5560 5565 5566 5572 5580 5585 5592 5594 5595 5602 5601
5368 5367 5367 5369 5371 5373 5376 5382 5390 5397 5406 5413 5422 5432 5437 5444 5450 5460 5468 5477 5485 5492 5498 5506 5509 5512 5517 5520 5522 5528 5530 5534 5538 5542 5548 5551 5552 5558 5561 5565 5572 5579 5582 5586 5588 5592 5593
5357 5357 5357 5358 5360 5363 5367 5371 5376 5382 5388 5397 5410 5420 5428 5433 5443 5452 5462 5470 5477 5485 5493 5497 5502 5507 5511 5515 5518 5523 5527 5530 5534 5538 5543 5545 5549 5552 5557 5559 5566 5573 5575 5579 5583 5590 5588
5346 5344 5343 5343 5345 5349 5353 5358 5364 5371 5377 5383 5396 5406 5416 5426 5432 5444 5452 5462 5472 5480 5487 5491 5495 5501 5506 5510 5514 5518 5524 5527 5529 5534 5537 5540 5545 5549 5553 5557 5562 5566 5570 5574 5576 5579 5581
5332 5328 5327 5328 5330 5333 5338 5344 5351 5359 5367 5374 5384 5394 5405 5415 5424 5432 5442 5454 5464 5471 5475 5480 5490 5495 5500 5505 5510 5515 5519 5525 5527 5530 5534 5537 5540 5542 5547 5551 5556 5558 5562 5566 5569 5572 5574
Wind_Speed
59 56 56 57 58 59 61 62 64 64 67 68 67 65 63 59 57 54 53 54 52 50 48 44 40 41 39 40 37 38 35 35 32 31 32 31 29 29 25 23 24 21 21 24 22 26 30
61 59 60 63 63 64 65 65 68 70 69 69 69 66 62 62 58 61 57 55 56 55 52 47 44 41 40 39 39 41 37 35 33 35 33 32 31 31 25 22 25 24 24 20 24 24 27
59 62 62 65 65 65 67 69 71 71 71 71 67 67 62 59 55 58 58 56 56 58 56 50 46 44 41 33 38 40 38 39 34 34 35 35 34 34 29 23 26 23 24 21 24 28 28
62 63 65 64 63 64 65 68 69 70 70 68 67 65 60 59 55 55 56 56 55 55 57 58 51 48 44 37 40 38 39 35 34 34 37 38 36 34 31 25 26 24 23 20 28 28 29
63 63 62 60 62 62 64 65 67 67 66 64 62 63 61 58 55 54 55 53 54 54 53 57 55 53 44 40 40 40 38 38 38 37 38 41 38 36 32 27 24 23 20 24 28 30 29
58 57 57 58 58 59 61 62 61 58 59 59 61 59 59 59 52 51 48 48 49 50 47 51 49 52 49 37 37 40 39 39 39 40 42 42 39 37 29 25 20 23 25 28 22 29 31
51 51 52 53 54 55 56 56 54 55 54 54 56 57 57 56 46 44 41 39 44 48 48 47 45 44 38 33 33 35 39 39 40 41 40 38 42 35 23 26 27 28 30 27 21 25 34
55 54 55 54 54 54 55 54 53 52 49 50 51 50 51 49 51 49 48 41 37 42 42 38 41 40 39 38 37 38 40 38 36 34 36 41 42 23 30 30 31 31 30 26 22 23 34
61 61 60 59 57 55 54 53 52 50 51 46 41 37 38 42 45 43 47 40 40 44 44 37 39 38 35 39 40 35 42 41 38 37 35 39 36 30 31 33 34 31 26 25 28 31 32
68 68 67 65 62 59 56 54 53 49 49 44 42 36 36 35 34 37 35 40 36 39 42 35 34 43 41 38 45 36 41 41 39 37 36 41 38 33 34 36 31 36 23 30 33 33 33
74 74 73 71 68 65 60 58 53 52 48 44 42 43 43 42 41 41 38 40 39 37 41 36 34 36 40 42 45 44 40 44 40 37 36 37 31 30 33 28 33 30 30 36 33 37 36
77 75 75 74 72 70 66 62 59 57 53 51 49 47 47 43 45 47 42 44 42 38 38 39 38 36 38 39 40 45 42 41 43 43 39 41 39 37 36 29 37 32 33 38 35 38 40
77 76 78 79 77 72 69 68 64 61 58 56 57 54 51 47 48 45 44 44 42 40 37 40 43 44 42 41 41 40 40 39 42 46 45 44 43 40 39 36 37 37 37 36 40 41 34
70 70 72 71 73 74 70 68 66 64 61 59 59 58 55 53 52 51 49 46 41 37 37 42 44 46 46 45 44 43 42 41 43 44 49 49 48 44 41 38 36 34 36 38 41 39 34
55 55 56 56 58 63 67 67 65 63 61 59 58 59 57 56 55 52 52 50 41 40 43 44 46 48 49 48 46 45 45 46 46 48 49 49 50 47 45 41 35 36 40 36 36 40 39
45 41 39 41 45 50 57 61 62 60 58 57 55 57 57 55 56 53 53 48 45 45 46 46 47 49 49 50 52 49 46 46 50 50 51 51 51 50 48 43 38 40 37 38 42 44 40
43 41 37 35 37 41 46 52 56 58 56 55 55 56 55 53 53 56 52 49 48 48 50 50 49 46 45 46 50 51 48 47 47 49 52 51 53 50 48 45 39 42 44 44 44 44 38
33 35 39 39 39 41 42 46 51 54 53 55 54 55 54 52 54 56 51 50 50 49 49 47 41 38 35 41 48 51 49 43 46 47 51 51 51 51 47 42 40 43 43 43 43 41 40
28 25 24 29 35 42 42 43 44 47 50 51 53 51 52 52 55 55 54 52 49 46 40 34 32 33 34 38 43 39 40 38 44 44 45 48 51 54 51 47 46 47 48 47 46 44 44
25 22 22 22 20 20 30 36 39 42 44 47 49 50 51 53 51 50 49 44 41 36 31 29 28 27 33 35 36 34 33 36 35 41 45 45 49 48 51 47 47 46 48 50 48 47 46
29 28 26 23 23 21 18 22 30 36 40 44 45 48 45 48 42 38 34 32 35 33 32 31 29 27 27 36 39 38 32 36 43 35 32 38 40 48 46 48 49 47 45 45 46 44 45
34 32 30 29 25 25 24 21 24 29 34 39 38 37 33 25 29 34 35 29 32 30 31 31 28 23 29 31 34 36 35 32 46 44 42 32 37 44 47 48 46 51 49 47 46 46 47
38 37 36 35 33 32 31 31 30 32 37 38 34 34 33 28 31 31 27 27 29 32 32 28 26 25 27 29 29 33 33 32 45 52 36 19 27 20 41 46 46 49 46 43 44 46 49
47 47 47 46 44 42 40 41 42 44 48 50 45 40 47 47 40 31 30 31 33 31 33 30 26 27 29 30 25 25 21 24 31 43 43 37 43 12 35 39 38 45 42 39 38 38 43
29 30 34 40 47 51 51 51 52 54 54 56 54 52 50 47 41 41 40 36 35 36 35 31 26 27 33 31 27 24 21 22 33 35 38 20 35 23 17 36 35 39 38 31 33 35 40
24 24 23 22 23 27 35 44 57 61 60 64 60 56 55 52 48 45 42 40 37 37 35 29 27 30 32 33 30 24 23 18 20 34 43 44 45 40 32 15 31 30 32 33 37 34 30
29 28 29 31 32 33 35 34 37 48 61 63 63 65 62 60 54 49 44 41 41 38 34 31 30 31 37 36 33 27 24 20 19 20 21 28 36 34 34 33 20 21 13 28 37 29 29
29 35 38 37 37 38 38 42 42 42 43 50 55 59 62 65 61 55 50 44 42 39 34 32 34 34 35 33 33 31 24 20 18 18 18 22 27 29 34 35 38 26 20 22 27 25 27
33 32 32 33 34 36 38 39 44 46 42 44 45 50 55 58 62 60 56 48 43 41 33 32 34 36 36 34 32 31 29 25 22 19 19 23 26 34 36 35 37 32 31 29 23 27 22
Wind_Direction
277 278 277 275 272 269 267 268 269 269 270 270 271 269 269 269 268 267 267 267 267 262 260 257 256 256 254 253 249 246 245 250 256 258 260 265 267 267 273 278 284 289 287 282 281 287 292
277 277 276 273 271 268 267 266 266 267 268 269 270 271 270 270 269 268 266 263 264 262 259 255 252 251 252 251 248 250 249 250 252 257 259 261 262 264 269 271 276 282 292 283 284 280 284
270 270 269 269 270 270 270 270 269 269 269 271 271 271 270 269 266 265 264 261 260 265 259 255 251 248 247 248 247 249 251 250 249 254 256 261 261 266 268 266 277 284 287 282 282 282 288
265 266 267 267 270 272 271 271 270 269 269 269 269 269 266 266 262 261 261 261 260 258 259 256 252 247 244 248 246 245 246 250 249 250 253 256 258 262 266 265 270 284 288 277 277 281 284
268 268 269 270 272 274 274 273 272 271 269 267 266 264 263 261 259 259 260 259 258 259 258 256 250 246 245 245 244 247 244 246 250 251 253 254 258 262 262 264 268 285 277 266 266 283 289
268 269 272 272 273 271 271 271 271 272 272 269 268 264 262 260 254 253 255 255 253 257 255 254 249 243 244 246 243 243 246 246 248 249 250 254 258 259 259 263 268 261 252 264 267 282 285
275 274 273 272 272 272 271 270 268 269 269 268 264 263 262 261 251 247 246 251 252 249 252 252 252 239 240 247 244 240 241 245 245 246 250 254 255 258 266 259 253 254 257 273 267 280 285
279 278 277 275 272 270 270 269 268 266 266 266 261 259 257 257 259 243 249 244 251 252 243 247 245 239 244 250 241 244 244 244 247 247 248 250 256 267 254 253 252 255 259 273 270 265 275
279 277 276 274 272 270 269 268 267 263 264 258 259 255 251 248 249 250 251 246 247 245 252 235 248 244 240 249 237 243 244 245 245 245 247 251 255 248 249 252 253 259 267 273 270 265 267
276 274 271 268 266 266 264 264 263 260 257 255 257 257 256 254 250 249 251 249 247 252 249 245 247 246 243 235 245 242 246 246 244 245 246 248 249 250 250 253 257 262 271 264 267 264 265
275 273 270 266 262 259 258 258 257 256 256 255 251 254 253 252 248 253 253 250 254 259 260 259 251 245 246 246 244 247 243 249 247 246 246 249 251 253 250 251 249 258 254 258 258 261 265
277 276 273 269 264 259 255 252 252 251 252 254 251 250 252 253 255 256 253 254 254 253 256 261 260 254 251 252 247 248 247 244 248 248 245 247 247 244 245 233 240 242 245 257 260 263 267
277 274 270 265 261 257 254 252 248 248 247 246 252 254 252 253 253 253 253 252 252 256 260 259 260 260 257 257 256 254 252 250 249 251 247 248 250 248 247 243 245 242 249 255 258 260 277
280 276 270 264 258 253 249 249 249 247 245 245 246 248 250 253 252 255 255 254 255 261 259 264 264 264 262 260 258 257 255 254 251 247 249 245 245 247 251 251 247 246 252 258 265 271 276
281 278 271 264 256 249 246 246 247 248 247 245 246 246 247 249 250 251 252 252 258 260 263 261 261 260 261 261 257 256 254 251 250 246 243 244 243 244 243 241 237 241 247 254 258 260 262
282 282 277 265 256 251 245 243 244 245 247 249 249 247 245 246 249 250 250 255 259 263 265 261 256 253 253 254 255 254 251 249 244 244 243 240 239 237 238 237 230 235 240 242 246 251 255
278 277 275 270 263 256 249 245 243 243 244 245 247 248 246 249 252 251 253 258 260 262 261 256 251 250 248 248 248 248 249 246 242 239 244 243 238 233 234 233 231 232 232 235 237 246 251
286 282 273 268 263 258 253 248 243 241 241 242 243 246 246 249 249 254 255 257 258 254 251 250 250 248 242 240 243 244 247 244 243 241 237 237 240 240 231 225 225 226 229 240 246 248 254
280 282 284 276 270 261 256 251 246 243 240 240 244 244 245 246 248 253 253 250 246 244 239 241 240 236 231 226 234 244 247 241 242 240 238 237 240 239 236 228 223 224 228 228 235 241 245
283 281 280 277 282 271 256 247 243 238 237 238 240 240 240 243 245 245 243 241 238 229 230 232 236 233 233 223 224 230 240 234 229 235 233 242 238 241 239 235 226 224 226 230 231 237 243
280 276 275 272 264 262 259 247 235 232 230 229 230 234 237 242 241 241 234 232 219 214 228 235 234 232 235 225 229 233 241 241 223 223 223 238 247 243 239 232 227 226 227 232 238 242 244
277 272 267 260 253 254 246 238 228 220 215 223 228 228 227 231 228 212 226 221 215 225 225 232 235 240 234 230 232 235 250 259 221 217 223 229 231 244 239 238 230 227 224 228 234 240 243
273 265 259 254 250 242 241 233 221 214 211 221 220 216 219 225 216 230 224 223 225 234 228 231 228 233 230 240 236 234 251 247 214 215 221 227 229 230 231 236 233 232 235 233 235 241 246
269 264 259 254 247 241 234 228 223 214 213 217 223 226 232 235 231 225 230 229 233 233 233 233 237 222 230 231 228 236 252 246 226 213 219 232 225 252 232 231 236 236 228 233 239 234 245
281 274 266 260 253 244 237 228 223 219 218 220 222 224 232 236 233 233 238 236 233 236 235 235 237 229 222 231 232 230 245 249 234 227 237 228 208 267 265 227 233 238 234 243 244 240 249
281 275 265 261 256 250 243 236 227 223 220 221 223 223 226 231 233 234 235 236 233 234 233 232 231 225 219 227 234 230 235 240 240 237 240 245 252 260 269 253 235 229 233 236 244 247 271
275 263 260 255 251 248 243 239 234 229 229 223 223 224 225 229 232 233 233 233 232 231 232 230 226 221 222 225 232 235 234 241 248 244 239 237 248 257 262 271 250 223 255 251 245 258 264
283 275 268 262 256 250 242 236 233 230 227 231 229 220 225 227 231 231 232 229 227 228 231 225 216 218 218 221 228 234 237 237 248 250 236 238 239 246 252 257 258 261 257 251 244 252 260
288 281 268 258 252 247 242 237 230 227 227 226 225 224 221 222 227 229 229 228 225 223 222 217 210 213 219 222 229 234 236 237 246 253 246 239 237 242 242 246 247 255 257 268 259 250 257